Location: Observatoire
(46.1952°N, 5.3391°E)
Time: 15:47:24
(UTC+01:00)

Injun/Solrad 3 - Pass Details

Date: 25 February 2026
Orbit: 872 x 984 km, 66.8° (Epoch: 7 March)

Event Time Altitude Azimuth Distance (km) Brightness Sun altitude
Rises 18:45:54 0° 326° (NNW) 3,579 11.3 -5.4°
Reaches altitude 10° 18:48:24 10° 327° (NNW) 2,649 10.7 -5.8°
Maximum altitude 18:54:36 86° 56° (NE) 961 8.0 -6.9°
Drops below altitude 10° 19:00:57 10° 147° (SSE) 2,705 10.1 -8.0°
Sets 19:03:32 0° 148° (SSE) 3,659 10.7 -8.4°
